Regional Weather Roundup
Issued by NWS

Home | Current Version | Previous Version | Text Only | Print | Product List | Glossary On
Versions: 1 2 3 4 5 6 7 8 9 10 11 12 13 14 15 16 17 18 19 20 21 22 23 24 25 26 27 28 29 30 31 32 33 34 35 36 37 38 39 40 41 42 43 44 45 46 47 48 49 50
000
ASUS43 KMKX 310200
RWRWI

WISCONSIN REGIONAL WEATHER ROUNDUP
NATIONAL WEATHER SERVICE MILWAUKEE/SULLIVAN WI
900 PM CDT THU JUL 30 2015

NOTE: "FAIR" INDICATES FEW OR NO CLOUDS BELOW 12,000 FEET WITH NO
SIGNIFICANT WEATHER AND/OR OBSTRUCTIONS TO VISIBILITY.

WIZ001-002-006>008-014>016-023>028-310300-
NORTHWEST WISCONSIN

CITY           SKY/WX    TMP DP  RH WIND       PRES   REMARKS
SUPERIOR ARPT  CLEAR     74  56  54 W8        29.91S
ASHLAND        CLEAR     70  56  61 W3        29.91R
HAYWARD        CLEAR     74  54  49 SW5       29.96S
SIREN          CLEAR     73  56  55 W6        29.97S
CUMBERLAND     CLEAR     70  55  60 W6        29.99S
RICE LAKE      CLEAR     71  56  60 W6        30.00S
CHETEK         CLEAR     73  58  58 SW3       29.99S
LADYSMITH      MOCLDY    74  56  53 SW7       29.99S
EAU CLAIRE     NOT AVBL
MENOMONIE      CLEAR     76  55  46 W7        30.00S
NEW RICHMOND   CLEAR     72  56  58 W5        30.00S
OSCEOLA        CLEAR     73  58  59 W6        30.01S
$$

WIZ003>005-009-010-017-018-310300-
NORTH CENTRAL WISCONSIN

CITY           SKY/WX    TMP DP  RH WIND       PRES   REMARKS
MANITOWISH WTR PTCLDY    64  64 100 CALM      29.94S
ARBOR VITAE    CLEAR     72  60  65 W5        29.94S
WOODRUFF       CLEAR     72  60  65 W5        29.94S
RHINELANDER    CLEAR     65  59  81 W3        29.96S
EAGLE RIVER    CLEAR     63  61  95 CALM      29.94S
LAND O LAKES   PTCLDY    64  58  82 CALM      29.94F
PHILLIPS       CLEAR     69  57  65 SW3       29.96S
TOMAHAWK       CLEAR     65  61  88 CALM      29.97S
MEDFORD        CLEAR     70  58  63 W6        29.98S
MERRILL        NOT AVBL
$$

WIZ029-030-035-036-043>047-310300-
CENTRAL WISCONSIN

CITY           SKY/WX    TMP DP  RH WIND       PRES   REMARKS
WAUSAU         CLEAR     71  57  61 W5        29.95S
MOSINEE        CLEAR     70  57  64 W7        29.98F
MARSHFIELD     CLEAR     71  55  56 W6        29.99S
STEVENS POINT  CLEAR     74  56  52 W3        29.98S
WAUPACA        CLEAR     78  54  43 W6        29.96S
WAUTOMA        NOT AVBL
WISC RAPIDS    CLEAR     73  54  51 W6        29.99S
CAMP DOUGLAS   NOT AVBL
$$

WIZ011>013-019>022-031-037>040-048>050-310300-
NORTHEAST WISCONSIN

CITY           SKY/WX    TMP DP  RH WIND       PRES   REMARKS
ANTIGO         CLEAR     62  60  94 SW5       29.97S
SHAWANO        PTCLDY    72  60  65 CALM      29.94S
OCONTO         CLEAR     66  60  80 CALM      29.92S
STURGEON BAY   CLEAR     66  59  77 W5        29.95S
GREEN BAY      CLOUDY    72  58  61 W5        29.94S
MANITOWOC      NOT AVBL
APPLETON       PTCLDY    73  52  46 W6        29.96S
CLINTONVILLE   CLEAR     70  57  64 W5        29.95S
OSHKOSH        CLEAR     75  55  49 W3        29.96R
$$

WIZ032>034-041-042-053>061-310300-
SOUTHWEST WISCONSIN

CITY           SKY/WX    TMP DP  RH WIND       PRES   REMARKS
LA CROSSE      CLEAR     78  59  51 W7        30.00S
SPARTA         CLEAR     74  56  52 CALM      30.01S
VIROQUA        CLEAR     70  59  67 W6        30.04S
BOSCOBEL       CLEAR     70  60  70 CALM      30.02S
PRAIRIE DU CHI CLEAR     76  56  49 SW3       30.02S
PLATTEVILLE    CLEAR     72  60  66 W6        30.04S
$$

WIZ056-057-062-063-064-067-068-310300-
SOUTH CENTRAL WISCONSIN

CITY           SKY/WX    TMP DP  RH WIND       PRES   REMARKS
REEDSBURG      CLEAR     75  57  53 W6        30.00S
BARABOO/DELLS  CLEAR     75  52  44 W3        30.00S
LONE ROCK      NOT AVBL
MINERAL POINT  CLEAR     73  54  49 W6        30.04S
MADISON        CLEAR     76  55  48 CALM      30.00R
MIDDLETON      CLEAR     72  54  52 W7        30.02R
WATERTOWN      CLEAR     74  58  57 W3        29.98S
MONROE         CLEAR     73  57  56 W12       30.03S
JANESVILLE     CLEAR     75  55  50 W7        30.00R
$$

WIZ051-052-058>065-066-070>072-310300-
SOUTHEAST WISCONSIN

CITY           SKY/WX    TMP DP  RH WIND       PRES   REMARKS
MILWAUKEE      CLEAR     81  52  36 W7        29.97S HX  80
WAUKESHA       CLEAR     73  54  49 W5        29.99S
MILWAUKEE/TIMM NOT AVBL
RACINE         CLEAR     77  54  44 CALM      29.99S
BURLINGTON     CLEAR     71  55  56 W3        29.99S
KENOSHA        CLEAR     69  56  62 W6        29.98S
FOND DU LAC    CLEAR     75  56  51 W6        29.97R
SHEBOYGAN      CLEAR     71  58  63 W5        29.95R
WEST BEND      CLEAR     77  48  36 CALM      29.97S
JUNEAU         CLEAR     73  56  55 W6        30.00R
$$

LSZ147-162-310300-
LAKE SUPERIOR

STATION/POSITION TIME  TEMP    WIND        PRES    WAVE
                       AIR SEA DIR/SP/G            HT/PER
                 (UTC) (F)     (DEG/KT/KT) (MB)    (FT/S)
W MID LAKE BUOY  0050   60 54  270/  4/  8 1010.5F   2/ 4
DEVILS ISLAND    0100   66     230/ 11/ 12 1011.3R
PORT WING        0100   74     240/ 11/ 15 1012.2S
SAXON HARBOR     0140   69                 1011.9S
$$

LMZ867-665-643>646-310300-
LAKE MICHIGAN

STATION/POSITION TIME  TEMP    WIND        PRES    WAVE
                       AIR SEA DIR/SP/G            HT/PER
                 (UTC) (F)     (DEG/KT/KT) (MB)    (FT/S)
CHAMBERS ISLAND  0100   68     210/  4/  7 1012.9S
S GREEN BAY BUOY 0100   69 70  350/  8/ 12 1014.8R
N MID LAKE BUOY  0050   72 69  240/  8/  8 1011.3S   2/ 4
NORTHPORT PIER   0100   75     280/  8/ 16 1012.2R
SISTER BAY       0144   73     300/ 13/ 14   N/A
ALGOMA LAKESHORE 0112          330/  9/ 12   N/A
KEWAUNEE LAKESHO 0100   78     300/  4/  9 1012.8R
SHEBOYGAN LAKESH 0100   82     280/  8/  9 1013.7R
PORT WASHINGTON  0100   82     250/  5/  7 1014.6S
ATWATER BUOY     0100   77 63  270/ 10/ 10 1015.8R
MILWAUKEE LAKESH 0100   83     290/ 10/ 14   N/A
KENOSHA   LAKESH 0100   83     280/  7/ 13 1014.2S
$$

TC  - TEMPERATURE IN CELSIUS
VSB - VISIBILITY IN STATUTE MILES
WCI - WIND CHILL INDEX
HX  - HEAT INDEX



USA.gov is the U.S. government's official web portal to all federal, state and local government web resources and services.